Flag for U.S.A. Weather past 2 weeks in Decatur, Illinois, U.S.A.

Now
33 °F

Overcast.


Feels Like: 27 °F
Forecast: 27 / 37 °F
Wind: 7 mph from South

Location: Decatur Airport

Current Time: Dec 20, 2014 at 11:16:06 AM

Latest Report: Dec 20, 2014 at 10:54 AM


Visibility: 8 mi

Pressure: 30.32 "Hg

Humidity: 82%

Dew point: 28 °F

Location of DecaturLocation

Historic Weather in Decatur — Graph

°F

Decatur temperature yesterday

Maximum temperature yesterday: 34 °F (at 1:54 PM)
Minimum temperature yesterday: 19 °F (at 6:54 AM)
Average temperature yesterday: 27 °F

Past Weeks' High & Low Weather Summary

 TemperatureHumidityPressure
High51 °F (Dec 13, 1:54 PM)100% (Dec 5, 10:53 PM)30.63 "Hg (Dec 5, 10:53 PM)
Low19 °F (Dec 19, 6:54 AM)59% (Dec 19, 2:54 PM)29.67 "Hg (Dec 15, 9:54 PM)
Average35 °F85%30.25 "Hg
* Reported Dec 5 9:54 AM — Dec 20 9:54 AM, Decatur, Weather by CustomWeather, © 2014

Note: Actual official high and low records may vary slightly from our data, if they occured in-between our weather recording intervals... More about our weather records

Advertising

Decatur weather history for previous 24 hours

 ConditionsComfort  
Time TempWeatherWind HumidityBarometerVisibility
9:54 AM
Dec 20
32 °FOvercast.6 mph85%30.32 "Hg8 mi
8:54 AM31 °FOvercast.6 mph85%30.31 "Hg8 mi
7:54 AM31 °FOvercast.6 mph85%30.30 "Hg8 mi
6:54 AM30 °FOvercast.3 mph89%30.30 "Hg8 mi
5:54 AM30 °FOvercast.5 mph89%30.29 "Hg8 mi
4:54 AM30 °FOvercast.3 mph89%30.29 "Hg9 mi
3:54 AM30 °FOvercast.3 mph85%30.29 "Hg10 mi
2:54 AM30 °FOvercast.3 mph85%30.29 "Hg10 mi
1:54 AM30 °FOvercast.5 mph85%30.29 "Hg8 mi
12:54 AM30 °FOvercast.No wind85%30.30 "Hg7 mi
11:54 PM
Dec 19
29 °FOvercast.No wind89%30.29 "Hg7 mi
10:54 PM29 °FOvercast.No wind89%30.30 "Hg7 mi
9:54 PM29 °FOvercast.No wind89%30.29 "Hg7 mi
8:54 PM29 °FPassing clouds.No wind85%30.29 "Hg8 mi
7:54 PM29 °FOvercast.5 mph82%30.29 "Hg8 mi
6:54 PM30 °FPassing clouds.No wind82%30.31 "Hg10 mi
5:54 PM30 °FClear.5 mph79%30.32 "Hg10 mi
4:54 PM30 °FClear.3 mph82%30.32 "Hg10 mi
3:54 PM31 °FSunny.6 mph76%30.31 "Hg8 mi
2:54 PM34 °FSunny.5 mph59%30.33 "Hg7 mi
1:54 PM34 °FPassing clouds.6 mph61%30.34 "Hg10 mi
12:54 PM33 °FSunny.3 mph63%30.30 "Hg8 mi
11:54 AM32 °FSunny.6 mph73%30.32 "Hg6 mi
Weather by CustomWeather, © 2014

See weather overviewHow to use our weather pages